Starlink 34451

operational
NORAD ID: 64433 Int'l Des: 2025-129 Owner: SPXS Country: US Constellation: starlink
LEOCIRCULAR

About Starlink 34451

Description loading...

Live Position

Loading 3D Globe...

Upcoming Passes

Altitude History

Altitude vs Time

uPlot chart will show altitude changes over time

Two-Line Element Set

1 64433U 25129X 26101.93791575 -.00525093 00000-0 -49142-1 0 9992
2 64433 70.0022 350.7790 0005590 59.1736 300.9971 14.96479580 46208
Epoch: Apr 11, 2026 • Age: 8 hours

Current Status

Altitude 606.0 km
Velocity 7.55 km/s
Sub-Earth Point -65.60°S, 3.66°E
Launch Date Jun 17, 2025
Age 0.8 years
Type internet

Technical Details

Classification Payload
Mass 575.00 kg
Dry Mass 530.00 kg
Total Mass 575.00 kg
Length 0.30 m
Diameter 4.10 m
Span 29.00 m
Shape Box + pan
Manufacturer SPXS
Bus Type Starlink V2MO
Phase Status In Orbit
Owner/State SPXS/US

Large Constellations

Loading constellations...